Location: Chuathbaluk
(61.5726°N, 159.2454°W)
Time: 05:08:27
(UTC+00:00)

Transit 4A - Pass Details

Date: 02 December 2020
Orbit: 864 x 980 km, 66.8° (Epoch: 26 January)

Event Time Altitude Azimuth Distance (km) Brightness Sun altitude
Rises 03:25:03 0° 312° (NW) 3,691 11.4 -12.3°
Reaches altitude 10° 03:28:12 10° 298° (WNW) 2,732 10.9 -12.6°
Maximum altitude 03:32:54 22° 250° (WSW) 1,972 10.7 -13.1°
Drops below altitude 10° 03:37:31 10° 202° (SSW) 2,678 10.9 -13.7°
Sets 03:40:34 0° 188° (S) 3,600 11.4 -14.0°
